Simultaneous Nadir Overpasses (SNOs) Predictions

Prediction of SNOs between AQUA and GOES-15 Satellite Orbit:

Table of predicted SNOs for the next 14.0 days since TLE Epoch: 6/14/2024
Index Date Time (AQUA) AQUA Lat,Lon GOES-15 Lat,Lon Distance(km) Time Diff (sec)
1 06/16/2024 21:59:19 -0.47, 62.73 -0.15, 61.34 158.49 80
2 06/17/2024 10:19:34 -0.59, 57.82 0.18, 61.29 394.79 80
3 06/19/2024 10:02:59 0.28, 61.88 0.18, 61.27 68.64 80
4 06/19/2024 22:23:05 0.74, 57.01 -0.20, 61.31 489.49 80
5 06/21/2024 22:06:28 -0.12, 61.08 -0.20, 61.31 27.00 80
6 06/23/2024 21:49:51 -1.02, 65.14 -0.19, 61.31 435.53 80
7 06/24/2024 10:10:07 -0.00, 60.23 0.22, 61.27 118.15 80
8 06/26/2024 09:53:28 0.83, 64.30 0.21, 61.27 344.41 80
9 06/26/2024 22:13:35 0.15, 59.43 -0.23, 61.31 213.67 80
10 06/28/2024 21:56:56 -0.72, 63.50 -0.23, 61.32 249.02 80
